SCP
0 0 0 0 0 0 0 0 1 1 1 1 1 1 0 0 0 0 0 0 0 0 1 1 1 0 0 0 0 0 0 0 0 0 0 0 0 0 0 0 0 0 0
0 0 0 0 0 0 0 0 0 1 1 1 1 1 1 0 0 0 0 0 0 0 1 1 0 0 0 0 0 0 0 0 0 0 0 0 0 0 0 0 0 0 0
0 0 0 0 0 0 0 0 0 0 1 1 1 1 1 0 0 0 0 0 0 0 0 0 0 0 0 0 0 0 0 0 0 0 0 0 0 0 0 0 0 0 0
0 0 0 0 0 0 0 0 0 0 0 1 1 1 0 0 0 0 0 0 0 0 0 0 0 0 0 0 0 0 0 0 0 0 0 0 0 0 0 0 0 0 0
0 0 0 0 0 0 0 0 0 0 0 0 1 1 0 0 0 0 0 0 0 0 0 0 0 0 0 0 0 0 0 0 0 0 0 0 0 0 0 0 0 0 0
0 0 0 0 0 0 0 0 0 0 0 0 0 0 0 0 0 0 0 0 0 0 0 0 0 0 0 0 0 0 0 0 0 0 0 0 0 0 0 0 0 0 0
0 0 0 0 0 0 0 0 1 1 1 0 0 0 0 0 0 0 0 0 0 0 0 0 0 0 0 0 0 0 0 0 0 0 0 0 0 0 0 0 0 0 0
0 0 0 0 0 0 0 0 0 0 0 0 0 0 0 0 0 0 0 0 0 0 0 0 0 0 0 0 0 0 0 0 0 0 0 0 0 0 0 0 0 0 0
0 0 0 0 0 0 0 0 0 0 0 0 0 0 0 0 0 0 0 0 0 0 0 0 0 0 0 0 0 0 0 0 0 0 0 0 0 0 0 0 0 0 0
0 0 0 0 0 0 0 0 0 0 0 0 0 0 0 0 0 0 0 0 0 0 0 0 0 0 0 0 0 0 0 0 0 0 0 0 0 0 0 0 0 0 0
0 0 0 0 0 0 0 0 0 0 0 0 0 0 0 0 0 0 0 0 0 0 0 0 0 0 0 0 0 0 0 0 0 0 0 0 0 0 0 0 0 0 0
0 0 0 0 0 0 0 0 0 0 0 0 0 0 0 0 0 0 0 0 0 0 0 0 0 0 0 0 0 0 0 0 0 0 0 0 0 0 0 0 0 0 0
0 0 0 0 0 0 0 0 0 0 0 0 0 0 0 0 0 0 0 0 0 0 0 0 0 0 0 0 0 0 0 0 0 0 0 0 0 0 0 0 0 0 0
0 0 0 0 0 0 0 0 0 0 0 0 0 0 0 0 0 0 0 0 0 0 0 0 0 0 0 0 0 0 0 0 0 0 0 0 0 0 0 0 0 0 0
0 0 0 0 0 0 0 0 0 0 0 0 0 0 0 0 0 0 0 0 0 0 0 0 0 0 0 0 0 0 0 0 0 0 0 0 0 0 0 0 0 0 0
0 0 0 0 0 0 0 0 0 0 0 0 0 0 0 0 0 0 0 0 0 0 0 0 0 0 0 0 0 0 0 0 0 0 0 0 0 0 0 0 0 0 0
0 0 0 0 0 0 0 0 0 0 0 0 0 0 0 0 0 0 0 0 0 0 0 0 0 0 0 0 0 0 0 0 0 0 0 0 0 0 0 0 0 0 0
0 0 0 0 0 0 0 0 0 0 0 0 0 0 0 0 0 0 0 0 0 0 0 0 0 0 0 0 0 0 0 0 0 0 0 0 0 0 0 0 0 0 0
0 0 0 0 0 0 0 0 0 0 0 0 0 0 0 0 0 0 0 0 0 0 0 0 0 0 0 0 0 0 0 0 0 0 0 0 0 0 0 0 0 0 0
0 0 0 0 0 0 0 0 0 0 0 0 0 0 0 0 0 0 0 0 0 0 0 0 0 0 0 0 0 0 0 0 0 0 0 0 0 0 0 0 0 0 0
0 0 0 0 0 0 0 0 0 0 0 0 0 0 0 0 0 0 0 0 0 0 0 0 0 0 0 0 0 0 0 0 0 0 0 0 0 0 0 0 0 0 0
0 0 0 0 0 0 0 0 0 0 0 0 0 0 0 0 0 0 0 0 0 0 0 0 0 0 0 0 0 0 0 0 0 0 0 0 0 0 0 0 0 0 0
0 0 0 0 0 0 0 0 0 0 0 0 0 0 0 0 0 0 0 0 0 0 0 0 0 0 0 0 0 0 0 0 0 0 0 0 0 0 0 0 0 0 0
0 0 0 0 0 0 0 0 0 0 0 0 0 0 0 0 0 0 0 0 0 0 0 0 0 0 0 0 0 0 0 0 0 0 0 0 0 0 0 0 0 0 0
0 0 0 0 0 0 0 0 0 0 0 0 0 0 0 0 0 0 0 0 0 0 0 0 0 0 0 0 0 0 0 0 0 0 0 0 0 0 0 0 0 0 0
0 0 0 0 0 0 0 0 0 0 0 0 0 0 0 0 0 0 0 0 0 0 0 0 0 0 0 0 0 0 0 0 0 0 0 0 0 0 0 0 0 0 0
Wind_Speed
3 2 2 3 3 3 4 4 5 5 5 4 3 3 2 2 2 2 2 3 3 3 3 2 2 2 2 1 2 2 2 2 1 2 2 2 2 3 3 2 2 3 3
2 2 3 3 4 5 5 4 5 5 5 4 3 3 3 2 1 1 2 2 3 3 2 2 2 2 2 2 2 2 2 1 2 2 2 1 2 2 3 2 2 3 2
5 3 4 4 4 4 5 5 4 5 5 5 4 4 3 2 2 1 1 1 2 2 3 2 2 2 2 1 1 2 2 1 1 1 2 2 1 1 2 2 2 2 2
4 4 5 4 5 5 4 4 4 5 5 5 5 5 4 3 2 2 1 1 1 2 3 2 2 2 2 2 1 2 2 2 1 1 2 1 2 2 1 2 2 2 2
5 5 5 6 4 4 4 4 5 4 4 5 5 5 3 2 2 2 2 1 1 1 2 2 2 2 2 2 2 2 2 2 2 1 1 1 1 1 2 2 2 2 1
4 4 3 3 3 3 4 4 4 4 4 5 5 5 5 4 3 2 2 1 1 1 1 2 1 2 2 2 2 2 2 1 2 1 1 1 1 1 1 2 2 2 2
4 4 4 4 4 4 4 4 5 4 4 5 5 5 5 5 5 3 3 2 1 1 1 1 1 1 1 2 2 2 2 2 2 1 1 1 1 1 1 1 1 2 2
4 4 5 5 5 5 5 5 5 5 5 5 4 4 4 3 3 3 3 3 2 2 2 2 1 1 1 2 2 2 1 1 2 1 1 1 1 1 1 2 1 2 2
4 4 4 4 5 5 5 5 5 5 5 5 4 4 4 4 3 3 2 2 2 2 2 2 2 2 2 2 2 1 1 1 1 1 1 1 1 1 1 1 2 2 2
2 2 3 3 3 4 3 4 4 5 5 4 4 3 3 3 3 3 3 3 2 2 3 2 3 2 2 2 2 2 1 1 1 1 2 2 2 1 1 2 2 2 3
3 2 2 2 2 2 3 3 3 3 4 4 4 3 3 3 3 3 3 3 3 3 3 3 3 3 2 2 2 2 2 2 2 2 2 3 2 2 2 2 2 2 3
1 2 2 2 2 3 3 3 3 3 3 3 3 3 3 3 3 3 3 3 3 3 3 3 3 3 3 3 3 3 3 3 3 3 3 3 2 3 2 2 3 3 3
1 1 1 2 2 2 2 3 3 3 2 3 3 3 3 3 4 4 3 3 3 3 3 3 4 4 3 3 4 4 4 4 4 4 4 4 3 4 3 3 3 3 3
1 1 1 1 1 2 2 2 2 2 3 3 3 3 3 4 4 3 3 3 4 3 3 3 3 3 3 4 4 4 4 4 4 4 5 5 5 5 5 4 4 4 4
1 1 1 1 1 1 2 2 2 2 3 3 3 3 3 2 2 2 3 3 3 3 3 3 3 3 3 4 4 4 4 4 4 4 5 5 7 8 7 5 5 4 4
2 1 1 1 2 2 2 2 2 2 2 3 3 2 2 2 2 3 3 2 3 3 3 3 3 4 4 6 7 5 4 4 5 5 5 5 6 8 10 11 9 8 5
3 2 3 3 3 3 3 3 2 2 2 2 2 2 2 2 3 3 2 3 3 3 3 3 3 4 5 7 8 8 4 4 5 5 5 5 5 6 5 8 10 9 11
3 3 2 2 2 2 2 2 2 2 2 2 2 3 3 3 3 2 3 3 3 3 3 3 4 4 6 8 8 8 5 5 5 5 6 6 6 5 5 5 5 6 6
3 2 2 2 1 1 2 2 1 2 2 3 3 3 3 3 3 4 4 3 3 3 4 3 4 5 6 8 9 8 3 4 5 5 6 6 6 9 10 6 6 6 5
1 1 1 1 1 1 2 2 2 3 4 5 4 4 4 4 4 5 4 3 3 4 4 4 5 5 6 9 9 8 3 4 4 4 5 8 9 10 10 6 6 7 6
0 0 1 0 1 1 2 2 3 5 5 3 3 3 3 4 4 4 3 3 3 3 3 4 4 5 6 8 10 9 4 4 4 4 4 5 9 11 11 9 6 8 7
1 0 0 1 2 1 2 2 4 4 3 2 3 3 3 3 3 3 3 3 3 3 4 4 4 4 5 7 8 10 9 7 5 5 4 5 9 10 11 8 8 10 7
1 1 0 1 2 1 2 3 4 3 2 2 3 3 3 3 3 4 4 3 3 3 4 4 4 4 3 5 10 10 10 10 6 5 8 9 10 9 7 9 10 7 4
1 1 1 2 3 3 2 3 3 2 2 3 3 3 3 3 3 3 4 4 4 4 4 5 5 4 4 4 4 4 5 7 6 5 6 9 9 6 6 6 5 3 4
2 1 2 3 4 4 3 4 3 2 2 3 3 3 3 4 3 4 4 5 6 6 6 5 5 5 5 7 9 6 4 4 5 4 2 2 2 3 3 3 3 3 3
2 2 3 4 5 4 5 4 3 3 3 3 3 3 3 3 3 3 4 6 8 10 12 11 9 7 9 11 11 11 11 10 9 5 3 4 4 4 4 3 3 3 3
Wind_Direction
239 202 182 161 156 156 159 164 145 143 138 129 127 118 115 98 75 65 68 76 82 84 88 90 81 77 88 94 102 93 81 60 57 69 43 25 34 47 44 33 42 41 35
225 192 171 163 171 169 167 160 156 151 149 144 136 126 121 109 102 77 66 69 75 78 92 98 101 93 91 80 81 93 92 48 40 89 91 24 0 12 22 22 35 28 21
212 203 185 188 182 180 176 170 164 155 148 136 117 105 91 82 82 86 77 60 84 86 85 88 107 102 101 108 94 106 109 110 24 55 122 138 207 315 344 8 21 18 17
210 201 190 192 195 196 176 163 160 154 150 145 143 145 144 154 172 160 145 103 91 90 92 83 99 105 99 101 93 89 117 129 136 38 41 101 149 152 314 329 347 0 3
208 202 194 195 195 181 168 163 155 151 151 152 154 146 144 152 140 130 128 116 95 99 105 96 93 109 112 111 100 92 102 125 144 134 103 75 56 110 166 269 309 330 327
205 202 190 174 166 150 148 147 149 154 152 149 150 153 157 158 151 152 151 138 105 94 107 116 112 121 124 125 125 120 118 116 116 122 140 152 156 173 172 215 269 288 291
190 189 182 173 169 160 155 154 152 160 158 154 160 166 167 166 172 176 172 165 159 187 191 158 157 146 145 140 128 118 118 128 131 147 165 182 216 182 183 201 247 274 287
194 194 188 179 178 173 166 165 163 165 163 164 169 166 163 165 175 178 175 183 188 196 181 172 183 182 156 141 129 126 144 137 143 160 171 193 235 196 188 192 199 281 293
198 196 187 180 177 179 181 176 169 168 170 170 166 164 167 170 174 174 174 183 188 186 176 180 196 185 165 161 148 151 170 158 170 191 199 217 244 221 209 205 197 204 258
191 188 188 188 184 183 178 167 170 172 169 167 170 168 171 174 170 167 182 189 194 187 181 190 200 187 177 173 166 172 180 173 207 206 207 230 240 231 214 213 217 214 227
195 185 183 175 168 155 155 159 162 158 165 169 168 161 169 167 166 178 193 194 195 191 190 200 196 192 191 186 180 192 188 197 224 228 222 239 235 231 226 213 217 224 221
187 173 167 150 149 159 162 166 166 164 175 172 165 171 174 164 173 196 203 196 199 201 198 198 192 197 198 194 196 206 208 211 225 233 230 244 239 237 231 220 224 228 222
149 132 136 151 162 168 163 165 169 172 166 156 162 174 183 180 192 202 202 202 199 200 198 191 195 201 203 205 210 211 218 223 230 232 232 239 232 241 238 230 233 238 239
157 146 166 183 185 179 168 164 172 168 162 158 167 187 203 204 206 202 202 207 198 196 204 205 207 208 209 212 215 214 223 232 238 235 232 234 229 233 234 236 234 234 240
195 198 199 205 204 197 185 173 174 166 162 161 180 209 212 200 198 204 209 205 201 207 205 205 215 215 214 216 214 217 224 233 243 245 240 238 239 239 239 237 229 223 233
229 225 219 210 212 212 205 190 190 183 162 171 198 206 194 193 199 206 202 199 208 212 205 210 215 223 232 237 239 235 225 230 235 245 249 247 249 252 255 254 248 238 232
223 220 218 221 227 223 206 201 201 179 166 187 202 198 192 201 211 206 197 209 217 213 214 221 221 231 240 246 251 249 239 230 234 237 244 253 248 252 245 255 257 255 254
222 230 230 236 242 228 212 194 174 176 190 205 214 208 196 208 210 201 212 223 220 218 226 228 229 237 246 248 252 255 245 238 238 237 236 243 250 244 244 242 245 246 249
226 228 225 226 225 220 198 170 191 198 207 221 224 220 208 211 212 217 225 228 221 229 232 232 230 236 249 249 251 253 238 243 248 246 239 240 246 254 258 252 248 254 257
242 229 220 190 207 231 179 175 211 215 224 228 227 220 213 214 220 224 229 232 223 232 233 240 237 235 245 252 254 252 234 244 254 254 249 249 252 257 259 247 241 251 251
305 76 123 190 234 223 181 211 228 234 236 232 232 227 219 221 226 229 231 227 229 234 239 246 250 243 245 254 255 253 240 233 246 254 255 251 258 263 262 257 245 250 253
0 46 67 294 285 227 189 227 248 250 244 231 233 235 228 227 226 217 229 224 220 230 242 248 259 252 248 249 251 251 250 248 243 247 248 250 259 264 268 268 262 263 260
307 309 232 294 303 275 209 238 261 253 238 240 245 246 242 234 222 215 223 229 221 226 238 239 250 256 246 248 253 257 255 256 257 250 253 262 267 268 267 266 267 264 241
289 289 297 294 297 295 276 259 265 248 228 248 255 248 239 242 233 224 217 220 224 227 234 237 243 250 250 242 240 243 250 255 260 262 262 269 270 269 267 268 262 244 227
292 280 269 275 283 290 285 280 266 236 244 254 254 251 243 237 239 237 230 227 229 224 228 233 231 235 247 244 242 244 236 229 235 249 255 260 262 257 257 257 248 232 227
294 292 281 277 282 286 285 283 268 238 236 257 256 249 245 241 238 245 268 251 245 253 250 248 246 247 249 256 256 258 259 260 255 256 243 248 249 248 251 253 250 234 227